Weather History for Houghton, MI

Change the Weather History Date:

Wednesday, July 3, 2013

  Actual Average Record
Temperature  
Mean Temperature 60 °F -  
Max Temperature 78 °F 74 °F 93 °F (1990)
Min Temperature 43 °F 53 °F 39 °F (1972)
Degree Days  
Heating Degree Days 5    
Growing Degree Days 10 (Base 50)    
Moisture  
Dew Point 47 °F    
Average Humidity 62    
Maximum Humidity 93    
Minimum Humidity 40    
Precipitation  
Precipitation 0.00 in - - ()
Sea Level Pressure  
Sea Level Pressure 30.06 in    
Wind  
Wind Speed 3 mph (East)    
Max Wind Speed 9 mph    
Max Gust Speed -    
Visibility 10 miles    
Events      
Averages and records for this station are not official NWS values.
T = Trace of Precipitation, MM = Missing Value Source: NWS Daily Summary

Daily Weather History Graph

Daily Weather History Graph

Search for Another Location

Airport:

Trip Planner

Search our weather history database for the weather conditions in past years. The results will help you decide how hot, cold, wet, or windy it might be!

Date:

Astronomy

Jul. 03, 2013 Rise Set
Actual Time 6:03 AM EDT 9:52 PM EDT
Civil Twilight 5:24 AM EDT 10:32 PM EDT
Nautical Twilight 4:30 AM EDT 11:25 PM EDT
Astronomical Twilight 3:10 AM EDT 12:44 AM EDT
Moon 2:50 AM EDT (7/3) 5:56 PM EDT (7/3)
Length of Visible Light 17h 08m
Length of Day
15h 48m
Waning Crescent, 18% of the Moon is Illuminated
Jul 3
Waning Crescent
Jul 8
New
Jul 15
First Quarter
Jul 22
Full
Jul 29
Last Quarter

Hourly Weather History & Observations

Time (EDT) Temp. Windchill Dew Point Humidity Pressure Visibility Wind Dir Wind Speed Gust Speed Precip Events Conditions
12:53 AM 46.9 °F - 39.9 °F 77% 30.11 in 10.0 mi ENE 3.5 mph - N/A   Clear
1:53 AM 46.0 °F - 41.0 °F 83% 30.10 in 10.0 mi Calm Calm - N/A   Clear
2:53 AM 46.0 °F 43.9 °F 39.9 °F 79% 30.10 in 10.0 mi ENE 4.6 mph - N/A   Clear
3:53 AM 48.9 °F - 39.9 °F 71% 30.09 in 10.0 mi Calm Calm - N/A   Clear
4:53 AM 44.1 °F 42.5 °F 41.0 °F 89% 30.09 in 10.0 mi North 3.5 mph - N/A   Clear
5:53 AM 43.0 °F - 41.0 °F 93% 30.09 in 10.0 mi Calm Calm - N/A   Clear
6:53 AM 46.9 °F - 43.0 °F 86% 30.10 in 10.0 mi Calm Calm - N/A   Clear
7:53 AM 55.9 °F - 50.0 °F 80% 30.11 in 10.0 mi Calm Calm - N/A   Clear
8:53 AM 60.1 °F - 51.1 °F 72% 30.11 in 10.0 mi South 4.6 mph - N/A   Clear
9:53 AM 66.0 °F - 50.0 °F 56% 30.11 in 10.0 mi Calm Calm - N/A   Clear
10:53 AM 68.0 °F - 54.0 °F 61% 30.10 in 10.0 mi Calm Calm - N/A   Clear
11:53 AM 70.0 °F - 52.0 °F 53% 30.09 in 10.0 mi South 4.6 mph - N/A   Clear
1:53 PM 75.9 °F - 53.1 °F 45% 30.07 in 10.0 mi SE 4.6 mph - N/A   Clear
2:53 PM 77.0 °F - 52.0 °F 42% 30.06 in 10.0 mi Variable 3.5 mph - N/A   Clear
3:53 PM 75.0 °F - 50.0 °F 41% 30.05 in 10.0 mi East 8.1 mph - N/A   Clear
4:53 PM 73.9 °F - 50.0 °F 43% 30.04 in 10.0 mi East 8.1 mph - N/A   Clear
5:53 PM 73.9 °F - 48.0 °F 40% 30.03 in 10.0 mi East 6.9 mph - N/A   Clear
6:53 PM 72.0 °F - 48.9 °F 44% 30.01 in 10.0 mi East 6.9 mph - N/A   Clear
7:53 PM 71.1 °F - 48.0 °F 44% 30.01 in 10.0 mi East 6.9 mph - N/A   Clear
8:53 PM 66.9 °F - 46.0 °F 47% 30.00 in 10.0 mi East 8.1 mph - N/A   Clear
9:53 PM 62.1 °F - 45.0 °F 53% 29.99 in 10.0 mi East 9.2 mph - N/A   Clear
10:53 PM 60.1 °F - 45.0 °F 57% 29.99 in 10.0 mi ENE 9.2 mph - N/A   Clear
11:53 PM 59.0 °F - 46.0 °F 62% 29.99 in 10.0 mi East 3.5 mph - N/A   Clear